This is the latest recevied weather packets stored in our database for station/object JH5EWP-13. If no packets are shown the sender has not sent any weather packets the latest 10 day(s).
| Time | Temp. | Humidity | Pressure | Rain* | Wind** | Luminosity | Snow |
|---|---|---|---|---|---|---|---|
| 1777559356 | 14.44° C | 87% | 997.7 hPa | 0 mm | - | - | - |
| 1777558456 | 14.44° C | 87% | 997.8 hPa | 0 mm | - | - | - |
| 1777557556 | 14.44° C | 87% | 997.8 hPa | 0 mm | - | - | - |
| 1777556656 | 14.44° C | 86% | 998 hPa | 0 mm | - | - | - |
| 1777555757 | 14.44° C | 86% | 998.1 hPa | 0 mm | - | - | - |
| 1777554857 | 14.44° C | 86% | 998.8 hPa | 0 mm | - | - | - |
| 1777553957 | 14.44° C | 86% | 998.8 hPa | 0 mm | - | - | - |
| 1777553057 | 14.44° C | 86% | 999.1 hPa | 0.25 mm | - | - | - |
| 1777552156 | 14.44° C | 87% | 999 hPa | 0.25 mm | - | - | - |
| 1777551256 | 14.44° C | 86% | 998.8 hPa | 0.51 mm | - | - | - |
| 1777550355 | 14.44° C | 86% | 998.8 hPa | 2.03 mm | - | - | - |
| 1777549455 | 14.44° C | 85% | 998.9 hPa | 2.54 mm | - | - | - |
| 1777548555 | 14.44° C | 84% | 999 hPa | 2.54 mm | - | - | - |
| 1777547655 | 14.44° C | 83% | 998.4 hPa | 2.29 mm | - | - | - |
| 1777546755 | 14.44° C | 82% | 1000.3 hPa | 0.76 mm | - | - | - |
| 1777545856 | 14.44° C | 81% | 1000.2 hPa | 0 mm | - | - | - |
| 1777544956 | 14.44° C | 81% | 999.5 hPa | 0 mm | - | - | - |
| 1777544056 | 15° C | 80% | 999.1 hPa | 0 mm | - | - | - |
| 1777543156 | 15° C | 78% | 999.5 hPa | 0 mm | - | - | - |
| 1777542257 | 15.56° C | 76% | 999.2 hPa | 0 mm | - | - | - |
| 1777541357 | 15.56° C | 75% | 999.4 hPa | 0 mm | - | - | - |
| 1777540456 | 16.11° C | 74% | 999.4 hPa | 0 mm | - | - | - |
| 1777539556 | 16.67° C | 73% | 999.8 hPa | 0 mm | - | - | - |
| 1777538656 | 17.22° C | 73% | 1000 hPa | 0 mm | - | - | - |
| 1777537756 | 17.22° C | 72% | 1000.2 hPa | 0 mm | - | - | - |
* Rain latest hour (hover to see other rain measurements)
** Current wind speed in m/s (hover to see current wind gust speed)